Preview of NWS' New Version of Forecast
This preview is not operational and should not be used for support decisions.

Regional Weather Roundup (RWR)

Issued by National Weather Service (NWS)

                            
399 
ASUS43 KOAX 200510
RWRNE 

WEATHER ROUNDUP FOR NEBRASKA
NATIONAL WEATHER SERVICE OMAHA NE
1200 AM CDT WED JUN 20 2018

NOTES: SATELLITE DATA IS BEING USED TO AUGMENT CLOUD COVER ABOVE
       12000 FEET.
       "FAIR" INDICATES FEW OR NO CLOUDS BELOW 12,000 FEET WITH NO
       SIGNIFICANT WEATHER AND/OR OBSTRUCTIONS TO VISIBILITY.

   
NEZ001>004-019>022-054>056-200600-
NEBRASKA PANHANDLE
  
CITY           SKY/WX    TMP DP  RH WIND       PRES   REMARKS
SCOTTSBLUFF    PTCLDY    54  53  97 N5        30.10R                  
ALLIANCE       CLOUDY    56  56 100 N8        30.06F                  
CHADRON        PTCLDY    52  52 100 CALM      30.07F                  
GORDON         CLOUDY    56  55  96 CALM      30.07S                  
KIMBALL        CLOUDY    56  55  97 N9        30.15R                  
SIDNEY         MOCLDY    59  58  96 N8        30.11R                  
$$
 
NEZ057>060-069>072-079>082-200600-
SOUTHWEST NEBRASKA
  
CITY           SKY/WX    TMP DP  RH WIND       PRES   REMARKS
NORTH PLATTE   LGT RAIN  66  66 100 E24G32    29.90F                  
IMPERIAL       CLOUDY    62  62 100 SE6       29.99R                  
LEXINGTON      RAIN      65  64  95 NE12      29.98F                  
MCCOOK         LGT RAIN  61  60  97 E9        30.01R                  
OGALLALA       CLOUDY    65  63  92 NE8       30.01S                  
$$
 
NEZ005>010-023>029-035>040-094-200600-
NORTH CENTRAL NEBRASKA
  
CITY           SKY/WX    TMP DP  RH WIND       PRES   REMARKS
VALENTINE      CLOUDY    66  63  90 N5        30.02F                  
AINSWORTH      CLOUDY   N/A N/A N/A NW5       30.02R                  
BROKEN BOW     RAIN      66  65  96 N3        30.00F                  
O'NEILL        CLOUDY    70  67  92 NE6       30.00F                  
ORD            RAIN      66  65  96 E9        29.98F FOG              
THEDFORD       CLOUDY    65  63  94 NE7       30.01F                  
$$
 
NEZ041-046>049-061>064-073>077-083>087-200600-
SOUTH CENTRAL NEBRASKA
  
CITY           SKY/WX    TMP DP  RH WIND       PRES   REMARKS
GRAND ISLAND   LGT RAIN  66  60  81 CALM      29.95F                  
AURORA         LGT RAIN  65  63  92 E9        29.91F                  
HASTINGS       LGT RAIN  65  62  90 E12       29.94S                  
HEBRON         CLOUDY    66  64  94 E12G17    29.88R                  
HOLDREGE       LGT RAIN  63  63 100 CALM      30.00R                  
KEARNEY        CLOUDY    66  63  90 E12       29.97F FOG              
YORK           RAIN      66  63  88 NE7       29.91F                  
$$
 
NEZ011>018-030>034-042>045-200600-
NORTHEAST NEBRASKA
  
CITY           SKY/WX    TMP DP  RH WIND       PRES   REMARKS
NORFOLK        RAIN      67  67 100 N6        29.97S FOG              
ALBION         RAIN      67  66  94 N3        29.98F                  
BLAIR          LGT RAIN  68  65  91 NW10      29.91F                  
COLUMBUS       CLOUDY    67  64  90 W8        29.91F                  
FREMONT        LGT RAIN  69  66  90 E5        29.92S                  
TEKAMAH        LGT RAIN  70  69  97 N10       29.92R                  
WAYNE          LGT RAIN  69  68  96 NW5       29.96R                  
$$

NEZ050>053-065>068-078-088>093-200600-
SOUTHEAST NEBRASKA
  
CITY           SKY/WX    TMP DP  RH WIND       PRES   REMARKS
LINCOLN        RAIN      69  65  86 W16       29.91F                  
OMAHA EPPLEY   CLOUDY    69  63  81 NW7       29.89F THUNDER          
BEATRICE       TSTM      69  67  95 NW13      29.93F                  
FALLS CITY     CLOUDY    74  72  93 NW6       29.89S                  
NEBRASKA CITY  CLOUDY    72  67  85 NW7       29.91R                  
PLATTSMOUTH    CLOUDY    68  66  94 SW3       29.90F                  
$$

NEZ044-045-051>053-067-200600-
OMAHA AREA
  
CITY           SKY/WX    TMP DP  RH WIND       PRES   REMARKS
OMAHA EPPLEY   CLOUDY    69  63  81 NW7       29.89F THUNDER          
BLAIR          LGT RAIN  68  65  91 NW10      29.91F                  
FREMONT        LGT RAIN  69  66  90 E5        29.92S                  
MILLARD        CLOUDY    68  67  96 W6        29.89F                  
OFFUTT AFB     LGT RAIN  68  65  89 CALM      29.87F                  
PLATTSMOUTH    CLOUDY    68  66  94 SW3       29.90F                  
WAHOO          LGT RAIN  67  63  85 N3        29.89F                  
$$